Wind_Speed
35 34 34 33 32 33 34 34 34 35 34 34 34 33 33 30 28 26 24 23 22 20 18 17 18 18 18 18 18 17 17 16 16 17 17 17 18 17 17 17 16 18 19 17 15 18 22 20 15 12 13 16 17 16 16 16 16 17 17 18 19 19 18 18 18 21 22 20 19 18 18 19 20 20 20 22 24 25 24 23 24 25 25 25 25 25 26
35 35 35 35 35 35 36 35 35 35 35 35 35 35 35 34 33 30 27 26 24 22 20 19 19 19 19 20 20 19 17 15 15 16 17 17 18 18 18 17 17 18 17 15 14 17 21 22 18 14 14 15 16 16 16 16 16 16 18 19 18 16 16 16 15 18 20 19 18 17 17 19 21 20 20 21 23 24 25 25 25 26 26 26 26 27 28
32 36 37 37 36 36 36 37 36 36 36 36 35 36 36 36 35 32 30 29 27 25 23 22 21 21 21 21 21 20 19 17 17 18 18 18 18 18 17 17 18 17 15 14 15 16 17 19 18 16 16 16 16 16 16 16 16 17 18 19 19 17 16 16 16 18 19 18 18 18 17 19 20 18 19 21 23 24 26 27 27 27 27 28 28 28 29
29 33 37 39 39 37 36 37 37 36 36 36 36 36 36 36 35 33 31 31 30 28 27 25 24 24 23 23 22 22 21 20 20 21 21 21 19 18 17 17 18 16 15 16 17 15 14 15 15 15 15 15 15 15 15 15 16 16 17 18 18 17 17 17 18 19 19 19 21 21 20 19 19 18 20 22 24 26 28 29 28 28 28 28 28 29 29
30 28 31 35 37 38 38 38 38 37 36 36 36 36 36 36 35 34 33 32 31 31 30 28 26 25 25 24 24 23 23 23 23 24 24 24 22 20 19 19 18 16 15 17 18 16 16 16 15 15 15 15 15 14 15 16 17 18 18 18 18 18 18 19 19 20 20 20 22 22 21 20 20 21 24 26 27 27 28 29 29 29 29 28 28 29 28
31 30 28 28 31 36 39 38 37 37 37 36 35 35 36 36 35 35 34 33 33 33 32 29 28 27 26 25 25 24 24 23 24 25 26 26 26 23 21 21 20 17 17 18 17 17 17 17 17 17 17 16 16 15 15 16 17 19 19 19 20 21 21 21 20 20 21 21 21 21 20 20 21 21 24 26 27 27 27 28 30 30 30 29 28 27 27
23 24 25 25 25 30 35 36 36 36 36 36 36 36 36 36 35 35 34 34 34 33 32 30 29 28 28 27 26 25 25 24 24 25 25 26 27 25 23 23 22 20 20 20 19 19 19 19 19 20 19 18 17 17 17 17 18 19 20 21 21 21 21 20 18 19 19 19 20 20 20 19 20 20 22 24 24 23 23 25 28 29 28 26 26 26 27
17 17 19 22 23 25 27 31 34 36 36 36 36 36 36 35 33 33 33 33 33 33 33 32 31 30 30 29 28 27 27 26 25 25 24 25 27 26 25 24 24 22 21 21 22 22 21 21 22 23 22 22 21 20 20 20 20 20 21 21 21 21 19 18 17 17 18 18 19 20 20 20 20 21 22 23 23 22 20 20 23 26 25 23 24 26 27
14 15 15 18 21 24 25 27 31 33 34 34 34 34 34 33 33 32 31 31 31 31 32 33 33 32 31 31 30 29 28 28 26 25 24 24 25 26 25 25 25 23 22 21 22 23 22 22 24 25 25 25 25 23 22 21 21 21 22 22 22 21 20 19 19 18 18 19 20 20 20 21 21 21 21 22 22 21 19 18 20 23 24 24 25 27 28
15 15 14 15 18 22 25 27 27 29 31 31 30 30 31 31 32 31 31 30 29 28 29 31 33 33 33 32 31 31 30 29 27 26 25 24 25 26 27 26 25 24 24 24 24 26 26 25 25 26 26 26 26 24 22 22 22 22 23 23 23 23 22 22 21 21 20 21 21 21 22 22 22 21 21 21 21 20 19 19 20 22 23 24 25 26 27
18 18 16 16 15 16 21 25 25 25 28 28 26 27 28 28 29 29 30 30 29 27 27 27 28 30 32 32 31 31 32 31 28 27 26 25 25 26 27 27 25 24 25 27 28 29 30 29 27 26 26 26 25 23 21 21 22 23 25 25 25 24 23 23 23 22 22 22 22 23 24 24 24 23 23 23 23 22 21 21 21 22 23 24 25 26 28
17 20 21 20 16 12 15 21 25 26 26 27 25 25 26 26 26 27 27 27 27 27 26 26 27 28 29 29 29 30 31 31 30 29 27 27 27 25 25 25 23 22 26 31 33 34 34 32 29 27 26 25 25 24 21 20 21 23 23 24 25 25 24 24 23 23 23 23 23 24 25 25 26 25 25 25 25 25 25 24 24 24 25 26 27 28 30
17 20 23 25 23 18 14 17 22 23 23 24 23 22 22 22 22 23 24 24 25 26 26 27 28 28 27 27 28 30 31 31 31 30 29 29 28 26 24 24 24 25 28 28 28 30 31 30 27 26 26 27 28 28 26 25 25 26 25 24 23 24 24 24 23 23 23 23 23 24 25 26 26 27 27 27 26 27 27 27 27 28 29 30 31 32 33
16 15 17 20 22 22 19 16 17 18 20 20 20 20 21 21 20 21 22 22 22 23 25 26 28 28 28 28 29 29 30 29 29 29 29 30 30 28 26 27 29 31 31 27 24 25 25 25 25 26 26 29 31 32 30 29 29 29 29 27 25 24 25 25 24 24 23 23 24 24 25 26 27 28 28 29 29 30 30 31 32 32 33 34 35 37 38
16 14 13 14 15 17 18 16 15 16 18 17 16 19 20 19 19 21 22 23 22 22 22 23 24 25 26 29 30 31 29 27 26 26 26 28 30 30 29 30 31 33 34 32 30 29 26 23 24 26 28 30 32 32 31 30 29 30 30 30 29 27 26 26 25 25 24 24 25 26 27 28 29 31 32 33 33 34 35 36 36 37 38 38 39 40 41
17 15 13 13 13 14 15 14 12 14 17 17 16 18 18 16 17 18 19 21 22 22 23 23 22 21 21 22 24 26 27 26 25 26 26 27 27 27 28 29 29 31 32 31 31 30 27 24 25 26 27 29 30 29 29 29 29 30 31 31 30 30 28 27 26 26 26 26 27 27 29 30 31 32 34 35 36 37 38 38 39 39 39 39 40 40 41
20 19 16 14 13 13 14 13 11 11 15 16 17 17 16 15 16 17 17 19 20 20 22 24 23 22 21 20 21 21 22 23 24 25 26 26 25 25 26 26 27 29 30 30 30 30 29 28 27 26 25 25 25 24 24 24 25 26 26 26 27 28 28 28 27 28 28 29 30 30 31 32 33 33 33 34 35 36 37 37 38 38 38 39 39 40 41
16 18 18 17 16 15 15 16 15 14 15 15 16 16 15 14 15 17 18 19 19 19 20 21 21 21 21 21 23 23 22 22 23 24 25 25 25 25 25 26 27 29 30 31 32 33 33 33 31 29 27 26 25 25 25 26 26 26 26 26 27 28 29 29 29 30 31 31 31 32 33 34 34 35 35 36 36 37 37 38 38 39 40 41 42 43 44
12 14 15 15 15 15 16 17 17 18 18 18 18 18 18 17 18 20 20 21 20 20 20 21 22 22 22 22 22 23 23 23 23 23 24 25 26 26 26 26 27 29 30 31 32 32 33 33 33 31 30 30 30 29 29 29 30 30 30 30 31 32 33 34 35 35 36 36 36 37 37 38 38 39 40 40 40 41 42 42 43 44 44 45 45 45 46
12 13 13 14 14 15 16 17 18 19 20 21 21 22 23 23 23 24 25 25 25 24 24 24 25 25 26 26 26 25 25 24 24 24 24 25 26 26 26 26 27 28 29 30 31 31 31 32 31 31 30 30 29 29 28 28 29 29 30 30 31 32 33 34 35 36 37 38 38 39 40 40 41 41 41 41 41 42 42 43 43 44 45 45 45 45 46
13 14 14 14 15 15 15 17 18 20 21 22 22 24 25 26 27 27 28 29 28 28 28 28 28 28 28 29 29 29 29 29 28 28 27 27 26 26 26 26 26 27 28 29 30 30 31 31 30 30 29 28 28 27 27 27 27 28 28 29 30 31 32 33 33 34 35 35 36 36 37 37 38 38 39 39 40 40 41 42 43 44 45 45 46 47 48
11 12 12 13 14 14 14 15 16 18 20 22 23 24 25 27 28 29 30 30 30 30 30 30 29 29 30 31 31 31 31 32 32 32 32 31 30 29 29 28 28 28 28 29 30 30 31 31 31 31 30 29 29 28 28 27 28 28 29 29 30 31 32 32 33 34 34 35 35 36 37 37 38 39 40 41 42 42 43 44 45 46 47 48 50 51 52
11 12 12 12 13 13 14 14 14 14 16 18 20 22 24 26 29 29 30 29 29 30 31 31 31 30 31 32 32 32 32 33 33 34 33 33 33 32 32 32 31 30 30 30 30 31 31 31 31 31 31 31 30 30 30 29 29 30 30 31 31 31 32 33 34 34 35 36 37 38 39 40 41 41 42 44 45 45 46 47 48 49 51 52 53 55 56
13 14 14 15 15 15 15 16 16 15 15 16 17 20 23 26 29 31 32 33 33 33 34 35 34 33 32 33 33 33 33 32 33 33 32 32 32 32 33 32 32 31 31 31 31 31 31 31 31 31 31 31 31 31 31 31 32 32 32 33 33 34 35 36 36 37 38 39 39 40 41 42 42 43 44 45 47 48 48 49 50 52 53 54 56 57 58
12 12 14 15 16 17 18 18 19 19 19 20 20 22 24 26 27 28 30 33 34 35 36 37 36 35 34 34 33 33 32 32 33 33 33 32 32 32 32 31 31 31 31 31 31 31 32 32 32 32 32 32 32 33 33 34 34 35 35 36 37 37 38 38 39 39 40 41 42 42 43 44 44 45 46 46 47 48 49 50 50 51 51 52 53 54 54
9 10 11 13 14 15 16 18 19 20 22 23 24 25 27 27 27 27 27 28 29 31 32 34 34 34 35 35 35 34 33 32 33 33 33 33 33 33 33 33 33 33 33 32 32 32 32 33 33 34 34 34 34 35 35 36 36 37 37 38 38 39 40 40 41 42 42 42 43 43 43 43 43 43 43 44 44 45 45 46 46 46 47 47 48 48 49
2 5 8 10 12 14 15 16 17 18 20 22 24 26 28 29 30 31 31 30 30 30 31 32 32 33 34 35 36 37 36 36 36 35 34 34 34 35 36 36 35 35 35 34 34 34 35 35 35 36 36 36 36 36 37 37 37 38 38 39 40 40 41 42 42 42 41 40 39 39 38 38 38 39 39 40 40 41 41 42 42 42 43 43 44 44 45
6 4 2 3 6 9 12 14 17 18 20 21 22 24 26 27 29 32 33 33 33 33 33 34 34 34 35 35 37 38 38 38 38 37 37 36 36 36 37 36 36 36 36 36 36 36 36 37 37 38 38 38 38 38 38 39 39 40 40 40 40 40 40 39 38 37 36 35 35 35 35 35 36 36 37 38 38 39 39 39 40 40 41 42 42 43 43
8 8 7 6 5 4 5 6 9 13 17 20 22 24 26 27 28 29 31 32 33 34 34 35 36 37 37 37 38 38 38 39 39 39 39 38 38 38 38 37 37 37 38 38 38 38 38 39 39 39 40 40 40 40 40 40 40 39 39 38 37 36 35 34 33 33 33 33 33 34 34 34 35 36 36 37 37 38 38 39 39 40 40 41 41 41 41
8 8 8 7 7 7 7 7 7 7 9 12 16 20 24 27 29 30 30 31 32 33 33 34 34 35 36 37 38 39 39 40 40 40 40 41 41 41 41 41 41 40 40 40 40 40 40 40 40 40 40 39 39 38 38 37 36 35 34 33 33 32 32 32 32 32 33 33 33 33 34 34 35 35 36 36 36 37 37 38 38 38 38 38 38 39 39
8 8 9 9 9 9 9 10 10 10 10 11 12 14 18 22 26 28 30 31 31 32 33 33 34 34 34 35 36 37 38 38 39 39 40 41 41 42 42 42 42 42 41 41 40 40 39 38 38 37 37 36 35 35 34 33 33 32 32 32 32 32 32 33 33 33 33 33 33 33 34 34 34 34 35 35 35 35 35 35 35 35 35 35 35 35 35
9 9 10 10 11 11 12 12 12 13 13 13 14 14 15 17 20 24 27 28 29 30 31 32 32 33 33 33 33 33 34 35 35 36 37 37 38 39 40 40 40 39 39 39 38 38 37 36 35 34 34 34 33 33 33 32 32 32 32 33 33 33 33 33 33 33 33 33 33 33 32 32 33 33 33 33 33 32 32 32 32 32 32 32 32 31 30
9 10 10 11 12 12 13 13 14 14 15 15 16 16 16 16 18 20 23 25 27 28 29 30 30 31 31 31 31 31 31 32 32 32 33 34 34 35 36 36 36 36 36 36 36 35 35 34 34 34 33 33 33 33 33 33 33 33 33 33 33 33 33 33 32 32 32 31 31 31 31 31 31 30 30 30 30 29 29 29 29 28 28 27 26 25 24
8 9 10 10 11 12 13 13 14 15 16 16 17 18 18 17 17 18 19 21 23 25 27 28 28 28 28 29 29 30 30 30 30 30 30 31 31 32 32 33 33 34 34 34 34 34 34 34 33 33 33 33 33 33 33 33 33 33 33 33 33 32 32 32 31 31 31 30 30 29 29 29 28 28 27 27 27 26 25 25 24 23 22 22 21 20 20
7 8 9 10 11 12 13 14 15 16 16 17 18 18 19 18 17 16 16 18 20 22 23 25 26 27 27 27 27 27 27 28 28 28 29 29 30 30 30 31 31 32 32 32 32 33 33 32 33 33 33 33 33 33 33 33 33 33 32 32 32 31 31 31 30 30 29 29 28 28 27 27 26 25 24 24 23 22 21 20 20 19 18 18 19 19 19
7 8 9 11 12 13 14 15 16 16 17 18 18 19 19 19 18 16 15 15 16 18 20 22 23 25 26 26 26 26 26 26 26 26 27 27 28 28 29 30 30 30 31 31 31 31 31 31 32 32 32 31 31 31 31 31 31 31 31 31 30 30 30 29 29 28 28 27 27 26 25 24 23 22 22 21 20 19 19 18 18 18 18 19 20 20 20
7 8 9 11 12 13 14 14 15 16 17 17 18 19 19 19 18 17 16 15 14 15 17 19 20 22 23 24 25 25 25 25 26 26 26 26 26 27 27 28 28 29 29 29 30 30 30 30 30 30 30 30 30 30 30 30 30 29 29 29 29 28 28 28 27 27 26 26 25 24 23 22 21 20 20 19 19 18 18 18 18 18 19 20 20 21 21
7 8 9 10 12 12 13 14 14 15 16 17 18 19 19 19 19 18 17 16 15 14 14 15 17 19 20 21 21 22 23 23 24 24 25 25 25 25 26 26 26 26 27 27 27 28 28 28 28 28 28 28 28 28 28 28 28 27 27 27 27 27 26 26 26 25 25 25 23 22 21 20 20 19 19 19 18 18 18 18 19 19 19 20 21 21 22
8 8 9 10 11 12 13 14 14 15 15 16 17 18 19 19 19 19 19 18 16 15 14 13 14 15 17 18 18 19 20 20 21 22 23 23 24 24 24 24 24 25 25 25 25 25 26 26 26 26 26 26 26 26 26 26 26 26 26 25 25 25 24 24 24 24 24 23 22 21 20 19 19 19 19 19 19 19 19 19 19 20 20 20 21 21 22
8 9 10 10 11 12 13 13 14 15 15 15 16 17 18 19 19 19 19 19 18 17 15 13 12 12 13 15 16 16 17 18 19 19 20 21 22 22 22 22 23 23 23 23 24 24 24 24 24 24 24 24 24 24 24 24 24 24 24 24 24 24 24 24 23 23 23 23 23 22 20 19 19 19 19 19 19 20 20 20 20 20 20 21 22 22 23
9 10 10 11 11 12 13 13 14 14 15 15 16 16 17 18 18 19 19 19 20 19 17 15 13 11 11 11 13 14 15 16 16 17 17 18 19 20 20 21 21 21 21 22 22 22 22 22 22 22 22 22 22 23 23 23 23 23 23 23 23 23 23 23 23 23 23 23 23 22 21 20 20 20 20 20 20 21 21 20 20 20 21 21 22 22 23
10 10 11 11 11 12 13 13 14 14 15 15 16 16 16 17 18 18 19 19 19 20 19 17 15 13 11 11 11 12 13 14 14 15 15 16 17 18 19 19 19 19 19 20 20 20 20 20 21 21 21 21 21 21 21 22 22 22 22 22 23 23 22 22 23 23 24 24 24 23 22 21 21 21 21 21 21 21 21 21 20 20 21 22 22 23 24
10 11 11 12 12 12 13 13 14 14 15 16 16 16 16 16 17 18 18 19 19 19 19 19 17 16 14 12 11 11 12 12 13 13 13 14 16 17 17 18 18 18 18 19 19 19 19 19 20 20 20 21 21 21 21 21 21 21 21 22 22 22 22 22 23 23 24 24 23 22 22 21 22 22 22 22 22 22 21 21 21 21 21 22 22 23 24
11 11 12 13 13 13 13 14 14 14 15 15 16 16 16 16 16 17 17 18 18 19 19 19 19 18 16 15 13 12 11 11 11 12 12 13 14 15 16 17 17 18 18 18 18 19 19 19 20 20 20 20 20 20 20 20 20 20 21 21 22 22 22 22 23 23 23 23 23 22 22 21 22 22 22 22 22 22 21 21 21 21 22 22 23 24 25
12 13 13 14 14 14 15 15 15 15 15 16 16 16 16 16 16 17 17 17 17 18 18 18 18 18 17 16 15 14 13 12 11 11 12 13 13 14 15 15 16 17 17 17 18 18 19 19 20 20 20 20 20 20 20 20 20 20 21 21 21 22 22 22 22 23 23 23 22 22 21 21 22 22 22 22 22 21 21 21 21 22 22 22 23 24 25
14 15 15 15 16 16 16 16 16 16 16 16 16 16 16 16 16 17 17 17 17 17 17 17 17 18 18 17 16 15 14 13 12 12 12 12 13 14 14 15 15 16 16 16 17 17 18 19 19 20 21 21 21 20 20 20 20 21 21 21 21 22 22 22 22 22 22 22 22 21 21 21 21 22 22 21 21 21 21 21 21 21 22 22 23 24 24
17 17 18 18 18 18 18 18 18 17 17 17 17 17 17 16 16 17 17 17 17 17 16 16 16 17 17 17 16 16 15 15 14 13 12 12 13 13 14 15 15 15 15 16 16 17 18 19 19 20 20 21 21 21 21 21 21 21 21 21 22 22 22 22 22 21 21 21 21 21 21 21 21 22 21 21 21 21 20 20 20 21 21 21 22 23 23
17 18 19 19 20 20 20 20 20 19 19 19 19 18 18 18 17 17 17 17 17 17 16 16 16 16 16 16 16 16 16 15 15 14 14 13 13 14 14 15 15 15 16 16 16 17 18 19 19 20 20 20 21 21 22 22 22 21 21 21 22 22 22 22 21 21 21 21 22 21 21 21 22 22 21 21 21 20 20 20 20 20 20 20 21 21 21
16 17 18 19 20 21 22 22 22 22 22 21 21 20 20 19 19 19 18 18 17 17 17 17 16 16 16 16 16 16 16 16 16 15 15 14 14 14 14 15 15 15 15 16 17 17 18 19 19 20 20 20 21 21 22 22 22 22 22 22 21 21 22 22 22 22 21 22 22 22 22 22 22 22 22 21 21 20 20 20 19 19 19 19 20 20 20
16 16 17 18 19 20 21 22 22 23 23 23 23 23 22 21 21 20 20 19 18 18 17 17 17 17 17 17 17 17 16 16 16 16 16 15 15 15 15 15 15 15 15 16 16 17 18 19 19 20 20 20 20 21 21 21 21 21 22 22 21 21 21 22 23 23 23 23 23 23 23 23 23 23 22 22 21 21 20 20 19 19 18 18 19 19 18
16 17 18 18 19 20 20 21 22 22 23 23 24 24 23 23 22 22 21 20 20 19 18 18 18 18 18 18 18 18 18 17 17 17 17 16 16 16 16 16 16 16 16 16 17 17 18 18 19 19 20 20 20 20 20 21 20 21 21 21 21 22 22 23 23 23 23 23 24 24 24 24 24 23 23 22 22 21 21 20 19 18 17 18 18 18 17
17 17 18 19 19 20 20 21 21 22 22 23 23 24 24 24 23 23 23 22 21 20 19 19 19 19 19 19 20 19 19 19 19 18 18 17 17 17 17 17 17 17 17 17 17 17 17 18 18 18 18 19 20 20 20 20 20 20 20 20 21 22 22 23 23 23 24 24 25 25 25 25 24 24 23 23 22 22 21 20 18 17 17 17 17 17 17
Wind_Direction
229 231 233 233 232 232 233 233 232 232 231 231 232 236 240 240 240 243 243 241 243 245 243 245 245 243 240 237 237 234 229 229 236 241 242 244 247 249 250 250 251 254 259 264 266 253 242 241 241 227 213 211 212 212 211 212 215 217 222 231 235 238 241 240 237 232 229 234 245 251 253 246 238 236 236 233 232 232 233 234 235 236 236 235 236 238 241
230 232 232 232 232 233 233 234 233 232 232 233 233 235 238 240 240 242 244 244 244 243 241 243 244 244 242 240 240 240 232 225 231 239 242 245 247 249 251 251 252 257 262 262 260 251 241 240 244 237 224 219 218 219 221 222 224 224 226 232 232 231 235 237 235 232 232 236 244 252 256 249 242 241 238 234 233 233 233 233 234 236 238 238 240 242 245
232 233 232 230 230 231 231 233 233 232 232 233 233 234 236 239 240 242 244 244 243 242 242 243 244 246 246 243 243 245 242 234 233 237 240 242 244 248 251 251 252 257 258 249 244 242 237 236 239 236 230 226 221 220 221 223 228 229 228 230 230 230 233 234 231 230 232 237 247 257 258 249 244 245 243 239 237 236 233 232 232 234 237 240 242 244 247
233 233 233 231 229 228 229 231 232 233 232 232 233 234 235 237 240 241 242 243 243 244 245 246 245 245 246 245 244 244 244 240 237 238 239 240 243 247 250 250 251 253 246 233 230 232 234 236 237 234 230 228 224 222 221 220 223 226 226 227 230 232 234 232 231 231 232 235 243 252 255 251 247 247 247 245 242 238 235 233 233 234 235 239 242 244 246
231 231 232 233 231 227 226 228 230 232 232 232 232 233 234 236 238 239 240 241 243 246 247 247 246 245 245 245 244 243 243 242 240 240 241 242 244 247 250 250 250 248 237 227 228 235 242 241 237 231 228 228 228 227 226 223 221 223 227 228 228 228 228 228 231 234 235 235 238 243 248 247 244 245 249 251 250 245 239 236 235 235 235 238 241 242 244
228 229 231 234 232 228 227 228 230 231 232 233 234 234 234 234 236 237 239 240 242 245 246 246 245 244 244 244 244 243 244 243 242 242 241 243 245 246 248 249 248 243 234 228 229 237 243 243 238 234 230 229 232 232 231 229 226 224 226 226 226 227 228 230 232 234 237 237 238 239 242 242 241 242 247 253 257 257 251 244 239 236 236 237 237 238 240
215 221 227 228 229 229 228 228 229 231 232 233 235 237 236 235 236 238 239 241 242 244 245 244 243 243 243 243 244 245 245 244 243 243 241 242 243 243 243 246 247 244 237 232 232 237 243 244 242 239 235 234 238 241 241 239 235 230 227 227 228 230 231 232 234 236 239 242 241 241 242 244 245 246 247 252 258 260 257 250 243 237 234 233 234 236 238
206 213 222 223 225 230 229 226 227 229 232 233 235 237 237 235 235 237 238 240 240 242 243 242 241 241 241 243 244 245 245 244 243 242 240 239 240 241 240 241 244 244 241 237 235 237 241 242 241 239 239 240 245 247 246 242 238 234 232 231 231 231 231 232 235 238 242 244 245 246 247 248 250 251 252 255 257 258 256 251 242 236 234 236 238 240 239
223 224 232 231 228 228 226 224 225 227 230 232 234 236 234 232 233 234 236 237 237 238 239 239 238 239 240 242 243 244 244 243 241 241 240 239 240 240 238 238 241 243 243 241 238 237 237 237 239 238 238 241 245 244 240 238 237 236 234 233 232 231 231 232 235 237 240 243 246 248 250 250 250 251 251 252 253 253 253 248 242 240 242 246 249 247 242
240 237 243 244 236 227 219 216 219 224 227 228 229 230 230 230 231 233 235 236 236 236 237 235 234 235 236 238 240 241 242 241 239 239 239 240 241 240 238 236 237 241 244 242 238 237 237 237 237 237 237 239 241 239 234 234 236 237 236 235 234 233 233 235 236 238 239 241 244 246 247 248 248 248 248 249 250 250 250 249 246 247 249 251 251 250 248
242 242 245 241 232 224 215 206 200 205 217 222 224 226 227 227 229 232 233 234 234 234 233 231 229 231 234 237 239 239 239 238 237 239 241 242 241 240 238 234 232 239 246 245 241 239 239 238 235 233 233 234 233 231 229 230 233 235 236 236 235 236 236 236 237 237 236 237 239 241 242 244 245 246 246 247 249 251 253 252 251 251 252 253 252 251 252
236 239 242 239 231 228 219 203 188 188 205 217 221 225 227 226 227 229 231 231 231 231 230 229 229 231 233 234 235 236 237 237 237 238 242 243 242 240 236 230 229 236 237 236 237 238 237 234 229 225 225 226 225 224 223 221 225 231 236 237 237 238 238 236 235 234 235 236 236 238 239 241 243 245 247 248 248 250 252 253 252 252 253 253 253 253 254
233 237 240 240 240 243 235 206 186 183 195 206 211 215 218 216 216 219 223 225 225 225 226 228 230 231 232 231 232 234 235 237 237 237 239 241 240 236 228 219 220 224 223 221 227 234 235 230 222 218 220 222 223 225 225 224 226 232 238 241 241 240 238 236 234 233 234 236 238 240 241 243 245 246 249 250 250 251 253 254 255 255 255 255 255 255 256
211 222 229 231 234 240 237 214 187 178 183 191 197 199 200 201 201 203 210 215 217 218 221 225 227 229 230 231 232 235 236 236 237 237 236 236 236 235 227 218 217 222 224 220 220 230 238 237 228 223 225 226 227 228 230 232 234 237 241 243 243 242 241 239 237 236 237 239 241 244 246 248 249 250 251 252 253 254 256 258 260 261 262 261 260 260 260
188 187 191 196 204 216 219 208 191 184 181 182 188 191 192 197 200 200 203 206 208 211 214 216 218 219 220 222 225 231 236 239 240 239 235 233 234 234 230 224 222 225 231 234 234 238 245 246 240 235 233 232 230 230 232 235 237 240 241 242 242 244 245 244 243 243 242 243 245 248 250 251 252 253 254 254 255 257 258 260 262 264 264 264 263 262 262
206 196 188 184 184 194 202 200 193 189 184 183 191 197 197 200 203 203 205 207 208 210 208 207 208 207 205 206 210 217 225 230 233 236 235 233 234 234 231 228 228 230 234 238 241 242 242 240 238 238 237 236 234 233 234 237 238 238 239 239 240 242 244 244 244 246 248 249 250 251 252 253 254 255 256 257 258 260 262 263 265 266 266 266 266 265 265
223 227 228 224 221 224 229 231 226 211 197 193 199 204 204 207 212 214 215 214 214 216 216 216 219 221 217 213 212 214 216 217 218 222 226 227 227 227 225 223 225 229 234 235 237 238 238 235 232 230 228 229 228 228 230 233 235 236 237 238 239 241 242 244 247 250 253 254 253 253 253 253 254 255 256 258 259 261 263 264 265 266 267 267 268 268 268
224 232 238 241 240 242 243 243 239 231 220 215 214 210 205 211 220 224 225 224 222 222 223 225 229 232 231 229 230 232 234 232 230 228 228 228 226 226 225 222 222 226 230 232 233 235 236 236 234 234 236 238 239 239 240 242 244 245 245 244 244 244 246 247 249 251 253 254 253 253 252 253 254 255 256 257 259 261 263 264 266 267 269 270 271 271 271
229 234 238 240 239 238 238 237 234 230 225 222 222 218 212 214 222 227 230 233 233 232 232 234 235 237 238 237 237 239 242 244 245 245 244 243 242 241 240 238 237 237 238 238 239 240 241 242 244 247 250 253 253 252 250 250 250 250 249 248 247 247 248 249 250 252 254 256 256 257 257 258 259 261 262 262 263 265 266 268 269 271 272 273 274 275 275
237 238 240 241 239 236 235 234 232 229 225 221 220 219 217 218 222 227 231 236 239 240 240 241 241 243 243 243 242 242 242 243 244 246 246 246 246 247 246 246 247 247 247 248 249 250 251 251 252 253 254 254 253 251 249 249 249 249 249 250 250 250 250 252 253 254 256 257 258 259 261 262 264 265 266 267 267 268 269 270 271 272 273 274 275 275 276
238 239 240 242 242 240 236 233 232 231 229 225 222 220 219 221 225 227 230 234 238 240 241 243 245 246 247 246 246 245 245 244 244 245 246 245 244 245 246 246 246 247 248 249 251 252 253 254 255 255 255 253 251 249 248 248 248 249 250 250 251 252 253 254 256 257 258 259 261 262 263 265 266 268 269 270 270 271 272 273 273 274 274 275 276 276 277
241 242 244 244 245 244 241 238 235 232 230 228 226 222 222 225 228 230 232 234 236 238 240 242 244 247 249 249 248 247 247 247 247 247 248 248 248 247 248 247 247 246 246 248 249 251 252 254 255 256 257 256 256 254 253 253 252 253 253 252 252 253 254 255 257 258 259 261 262 263 265 266 267 268 269 270 271 272 272 273 274 274 275 275 275 275 276
248 249 249 248 247 246 244 242 241 236 231 229 226 224 225 227 230 232 235 236 237 237 238 239 240 243 247 249 249 249 248 249 250 250 249 250 251 251 252 252 251 251 250 249 250 251 252 252 253 254 254 255 256 256 256 256 255 255 255 255 256 256 257 257 258 259 259 260 261 262 264 264 265 267 268 269 270 271 271 272 273 273 274 274 274 274 274
245 246 246 245 245 243 241 240 239 235 231 226 221 222 225 228 230 232 233 234 233 232 233 236 237 239 242 246 250 252 251 250 251 251 251 250 250 250 250 251 251 251 252 252 252 252 253 253 253 253 254 254 255 256 256 257 257 257 257 258 258 259 260 261 262 262 263 264 265 266 267 267 268 269 270 271 271 272 272 272 272 272 273 273 273 273 273
241 242 242 243 243 243 242 240 238 235 233 229 224 223 224 226 227 228 226 226 226 226 227 230 232 235 237 241 245 249 251 251 251 251 250 249 248 249 250 251 251 252 252 252 251 251 251 251 252 253 254 255 255 256 257 258 259 260 261 262 263 264 264 265 266 266 267 268 269 270 271 272 272 272 272 272 272 272 272 272 271 271 272 272 273 273 273
246 247 247 247 247 247 246 245 243 241 239 237 235 234 232 232 232 232 230 227 226 226 227 228 230 232 234 238 241 244 246 247 248 249 248 247 246 248 251 253 255 255 254 253 253 252 251 251 251 252 254 255 256 257 258 259 261 262 263 264 265 266 267 268 269 271 272 272 273 273 273 273 273 272 272 271 271 271 271 271 271 271 271 271 272 273 274
258 258 258 256 255 254 254 252 252 250 247 245 244 244 243 242 243 244 245 245 242 239 237 236 235 233 233 236 239 242 244 243 244 245 245 245 248 252 255 256 256 255 255 255 254 254 254 254 255 256 257 258 259 259 260 261 262 263 264 265 266 268 270 271 273 274 274 275 275 275 274 274 273 273 272 272 271 271 271 271 272 273 273 274 274 275 276
66 56 9 295 272 266 263 260 258 257 256 254 253 251 250 250 249 250 251 253 253 252 250 248 246 243 241 239 238 239 240 240 240 240 242 244 248 252 254 255 255 255 255 256 256 256 256 256 257 258 259 260 260 261 262 264 265 267 268 270 271 272 273 273 273 274 274 274 274 273 273 273 273 273 273 273 274 274 275 275 276 277 277 278 279 279 280
57 54 49 41 25 359 324 294 278 270 265 261 259 257 256 255 254 253 253 254 254 255 255 254 253 252 251 250 248 246 245 245 244 244 246 247 249 251 252 254 255 256 257 257 258 258 258 259 260 261 261 262 264 265 267 269 270 271 272 272 272 272 271 271 271 271 271 272 272 272 272 273 273 273 274 275 276 277 278 279 280 280 281 282 282 283 283
39 36 34 31 27 21 12 360 344 324 302 284 273 266 262 259 258 257 256 255 255 255 255 255 255 254 254 254 254 254 254 254 254 254 254 255 255 256 257 258 259 260 261 262 262 263 263 264 264 265 266 267 268 269 270 271 271 271 271 270 270 270 270 270 271 272 272 272 273 273 273 273 274 274 275 276 277 278 279 280 281 283 284 284 285 285 286
20 16 14 13 10 7 3 359 355 349 341 329 312 294 280 270 265 261 259 258 257 256 255 255 254 255 255 255 255 256 256 257 257 258 258 258 258 259 260 261 263 264 265 266 267 267 267 268 268 268 269 269 270 270 270 270 270 270 270 270 271 271 272 272 273 273 273 273 273 273 274 274 274 275 276 277 278 279 280 281 282 284 285 286 286 287 287
6 4 3 3 2 360 358 355 352 350 347 343 336 325 307 289 276 269 265 263 262 261 260 258 257 256 255 255 255 255 256 256 257 257 258 258 259 259 260 261 262 264 265 266 267 267 268 268 268 269 269 269 269 269 270 270 270 270 271 271 272 272 272 273 273 273 273 273 273 274 274 275 275 276 277 278 279 280 281 283 284 285 286 286 287 287 287
355 354 354 355 355 355 354 352 351 349 348 346 344 340 329 311 292 278 271 267 264 263 263 262 262 261 259 258 257 257 256 256 256 256 257 257 257 258 258 259 260 261 262 263 264 265 265 266 266 266 267 267 268 268 268 269 270 270 270 271 271 272 272 273 273 273 273 273 273 274 274 274 275 275 276 278 279 280 282 283 284 285 286 287 288 288 287
343 343 345 346 346 347 349 350 351 350 350 350 350 348 343 331 312 293 280 272 267 264 263 262 262 262 262 261 260 260 259 259 259 258 258 258 258 258 257 258 258 258 259 260 261 261 262 263 263 264 265 265 266 266 267 268 268 269 270 270 271 271 272 272 272 273 272 272 272 272 272 272 273 274 275 277 278 278 280 281 283 284 286 286 286 286 284
336 337 339 342 343 344 347 349 351 351 352 352 353 354 352 346 332 313 295 282 273 268 265 263 262 261 260 260 260 260 259 260 260 259 259 259 258 258 258 258 258 258 258 259 259 260 260 261 261 262 263 264 265 266 266 267 267 268 269 269 270 270 270 271 271 270 270 270 269 269 269 270 270 271 271 273 274 275 277 278 279 279 280 281 281 282 282
337 337 339 341 343 345 347 349 350 351 352 354 355 357 358 356 348 336 321 303 288 277 271 267 264 262 261 260 259 259 259 259 259 259 258 258 257 257 257 256 256 257 257 258 259 259 260 260 261 261 262 263 264 265 265 266 267 267 268 269 269 269 269 269 269 268 268 267 266 265 265 265 265 265 266 268 270 272 273 273 272 273 276 278 280 282 285
339 340 341 341 342 344 345 347 350 351 352 354 356 358 0 1 358 351 342 330 315 298 285 276 271 268 265 263 262 261 260 259 259 258 258 258 257 257 257 256 256 256 256 257 257 258 259 259 260 261 261 262 263 264 264 265 266 267 268 268 268 268 268 267 266 266 264 262 260 259 259 259 259 260 263 266 268 269 268 267 268 272 277 282 286 289 293
342 341 341 341 342 343 345 347 349 350 351 353 356 358 0 2 2 360 354 346 336 322 306 292 281 274 271 267 265 263 261 260 259 258 258 258 258 258 257 258 257 257 257 257 257 257 258 258 259 260 260 261 262 263 263 264 265 265 265 265 266 266 265 264 262 260 258 255 253 252 253 255 257 260 263 265 266 264 262 263 267 274 280 286 291 295 298
345 343 343 343 343 343 345 347 350 351 351 353 355 357 359 1 2 3 1 357 350 340 327 311 296 283 275 270 267 264 262 260 259 258 258 258 258 258 258 257 257 257 257 257 257 257 257 257 258 259 259 260 261 261 262 263 263 263 263 263 263 262 261 258 256 254 251 248 247 247 250 254 258 262 264 264 262 259 258 262 269 277 283 289 294 297 300
349 348 347 346 345 345 346 347 349 351 352 353 354 356 359 360 1 2 3 3 0 354 345 333 318 301 286 276 270 266 263 261 260 260 260 260 259 258 258 257 256 256 256 256 256 255 255 256 256 257 258 258 259 260 260 261 261 261 261 260 259 257 255 252 250 247 245 243 243 245 249 255 260 263 262 260 256 255 257 263 271 279 287 293 297 300 303
354 353 352 351 349 347 346 347 348 349 351 352 354 355 357 359 360 1 2 3 4 2 357 350 341 326 308 292 280 273 268 265 262 261 261 261 261 260 258 257 256 256 256 255 255 255 255 255 255 256 257 257 258 259 260 260 260 260 259 258 256 254 252 249 246 243 241 240 242 245 250 256 260 261 259 255 253 254 258 264 272 281 289 296 300 303 306
358 357 355 354 352 350 348 348 348 348 349 350 352 354 355 357 358 360 1 2 4 5 3 360 354 346 335 318 300 287 278 272 268 266 265 264 264 263 261 260 259 258 257 257 256 256 256 256 256 256 256 257 257 258 258 259 258 258 258 256 255 252 249 246 244 242 241 241 242 245 250 255 257 256 254 252 252 254 259 266 274 283 291 297 302 306 309
3 0 358 357 356 353 350 349 349 348 348 348 350 351 352 354 356 358 359 0 1 3 4 4 1 357 352 342 327 310 294 283 277 273 271 269 267 266 265 263 262 261 260 259 258 257 257 258 258 257 257 257 257 257 257 257 256 256 255 254 252 250 247 244 242 242 241 242 243 246 249 252 253 252 250 250 252 256 262 268 276 283 290 297 303 307 311
7 4 1 360 358 356 353 352 350 349 347 347 348 349 349 350 352 354 356 358 359 1 2 3 2 1 358 353 345 335 321 305 292 284 279 276 273 271 269 267 266 265 263 262 260 259 259 259 259 259 258 257 257 256 256 255 255 254 253 252 251 249 246 243 242 242 242 243 244 246 248 249 249 249 249 250 253 258 264 270 277 284 290 296 302 306 311
13 9 5 2 360 358 356 354 353 351 348 347 347 347 347 347 347 349 351 353 356 357 359 359 360 360 360 357 351 344 336 327 314 301 292 286 281 276 273 271 270 269 268 267 266 265 264 263 262 261 259 258 257 256 255 255 254 253 252 251 249 248 245 243 242 243 243 243 244 245 245 245 246 247 248 251 255 260 265 271 278 284 290 295 300 305 310
18 14 9 6 2 0 358 356 354 352 349 347 346 346 345 344 344 345 346 348 350 352 354 355 355 355 356 356 353 347 341 335 328 318 307 298 291 285 280 276 273 272 272 273 273 271 270 268 267 264 263 261 259 257 255 254 254 253 252 251 249 247 244 243 243 243 243 243 243 242 242 243 244 246 248 252 257 262 267 273 279 285 289 294 299 304 310
17 14 10 7 4 2 360 358 355 352 349 346 345 345 344 342 340 340 341 342 343 345 347 349 350 350 351 351 350 346 342 337 333 327 319 309 301 295 290 285 281 278 275 273 272 272 271 271 270 267 265 263 261 259 258 256 255 255 254 253 250 247 244 243 242 243 242 241 240 239 240 241 243 246 249 253 258 263 268 273 279 284 288 293 299 304 310
15 11 8 6 3 1 360 357 355 353 350 348 345 344 343 341 338 337 337 337 337 338 339 340 341 342 343 344 343 342 340 337 333 328 323 314 306 299 294 290 287 285 281 277 273 271 270 270 270 268 265 263 261 260 259 257 256 255 255 254 252 249 246 243 242 241 240 238 237 237 238 240 243 246 250 253 258 262 267 271 276 281 286 292 298 304 310
12 9 6 3 1 359 358 356 353 352 350 348 346 344 342 339 337 335 334 333 332 332 332 332 332 332 333 334 334 335 335 333 331 327 324 318 310 302 296 291 288 285 283 280 277 274 271 268 267 266 264 262 261 260 259 259 258 256 255 254 252 249 247 244 241 239 237 236 235 235 236 239 242 246 250 253 257 260 264 268 273 278 284 290 297 303 308
5 3 2 0 359 357 354 352 351 350 349 348 346 344 342 339 336 334 332 330 328 327 326 325 325 325 324 324 324 325 326 326 326 325 323 319 313 306 301 296 291 287 284 280 277 275 273 271 267 265 263 261 260 259 259 258 257 256 256 254 252 248 246 243 239 236 234 234 234 234 236 239 242 245 248 252 254 258 261 265 269 275 281 288 294 300 306
358 357 356 356 355 354 352 350 348 347 346 345 344 342 340 338 335 332 329 327 325 323 322 320 318 317 316 315 315 316 317 317 318 319 319 317 313 309 304 299 295 291 287 284 281 279 277 274 271 268 265 262 261 259 259 258 257 256 255 253 251 248 246 243 238 234 232 233 234 235 236 239 241 244 246 249 251 254 257 261 266 272 278 285 291 297 304
353 352 351 350 350 350 350 349 348 346 345 343 341 339 338 336 334 331 328 326 323 321 318 315 312 311 310 308 308 309 310 310 310 311 311 311 310 308 304 301 297 293 289 286 283 281 280 278 275 272 268 265 264 262 261 260 258 257 255 253 251 248 246 242 238 233 232 233 235 237 238 240 241 243 244 246 248 251 254 258 262 268 275 281 288 294 300
Height
5664 5666 5668 5671 5673 5674 5676 5678 5680 5682 5684 5686 5688 5689 5690 5691 5693 5694 5695 5696 5698 5700 5702 5704 5705 5706 5707 5708 5709 5710 5711 5712 5713 5714 5715 5716 5717 5718 5719 5719 5720 5720 5720 5720 5720 5719 5719 5720 5720 5722 5723 5725 5726 5729 5731 5733 5734 5736 5736 5735 5735 5737 5738 5739 5740 5741 5743 5745 5745 5746 5746 5747 5748 5749 5750 5751 5752 5753 5755 5756 5757 5758 5758 5759 5759 5760 5761
5661 5662 5664 5667 5669 5671 5672 5674 5676 5678 5680 5682 5684 5686 5687 5688 5690 5691 5692 5694 5696 5699 5700 5702 5703 5704 5705 5706 5707 5708 5709 5710 5711 5712 5713 5713 5714 5715 5716 5717 5718 5718 5718 5719 5718 5718 5718 5718 5719 5721 5723 5724 5726 5727 5729 5730 5732 5733 5734 5733 5734 5735 5736 5737 5738 5739 5740 5742 5743 5744 5744 5745 5745 5746 5748 5749 5749 5751 5752 5753 5754 5755 5756 5757 5757 5758 5758
5657 5658 5660 5662 5665 5667 5669 5670 5672 5675 5677 5679 5681 5683 5684 5685 5687 5689 5690 5692 5694 5696 5698 5699 5701 5702 5703 5704 5705 5706 5707 5708 5709 5709 5710 5711 5712 5713 5714 5715 5716 5716 5716 5717 5717 5716 5716 5717 5718 5720 5721 5722 5724 5726 5727 5729 5730 5731 5732 5732 5732 5733 5735 5736 5737 5738 5739 5740 5741 5742 5742 5743 5743 5744 5745 5746 5747 5748 5748 5749 5750 5752 5753 5754 5755 5755 5756
5653 5655 5656 5658 5660 5663 5665 5667 5668 5670 5673 5675 5677 5679 5681 5682 5684 5686 5688 5689 5691 5693 5695 5696 5698 5699 5700 5701 5703 5704 5705 5706 5707 5708 5708 5708 5709 5710 5711 5712 5713 5714 5714 5715 5715 5715 5715 5716 5716 5718 5719 5721 5722 5724 5725 5727 5728 5729 5730 5730 5731 5732 5733 5734 5735 5736 5737 5739 5740 5740 5741 5741 5741 5742 5742 5742 5743 5744 5745 5746 5747 5749 5750 5751 5752 5753 5753
5649 5651 5653 5654 5656 5659 5660 5662 5664 5666 5668 5671 5673 5675 5677 5679 5681 5683 5684 5686 5688 5690 5691 5693 5695 5696 5697 5699 5700 5701 5702 5703 5704 5705 5706 5706 5707 5708 5709 5710 5711 5711 5712 5713 5713 5713 5713 5714 5715 5716 5718 5719 5720 5722 5723 5725 5727 5727 5728 5728 5729 5730 5731 5731 5733 5734 5735 5736 5737 5738 5738 5739 5739 5740 5740 5739 5740 5741 5742 5743 5745 5746 5747 5748 5749 5750 5750
5645 5648 5649 5651 5653 5654 5655 5658 5661 5663 5665 5667 5669 5671 5674 5675 5677 5679 5681 5683 5684 5685 5687 5690 5692 5693 5694 5696 5697 5698 5699 5700 5701 5702 5703 5704 5704 5706 5707 5707 5708 5709 5710 5711 5712 5712 5712 5713 5713 5714 5715 5717 5718 5719 5721 5723 5724 5725 5726 5726 5727 5728 5728 5729 5731 5732 5733 5734 5734 5735 5736 5736 5737 5737 5738 5738 5738 5739 5740 5741 5742 5743 5744 5745 5746 5747 5748
5642 5644 5646 5648 5649 5649 5651 5654 5657 5659 5661 5663 5666 5668 5670 5672 5674 5675 5677 5679 5681 5682 5684 5686 5688 5689 5691 5692 5693 5695 5696 5697 5698 5699 5700 5701 5701 5703 5704 5705 5705 5707 5708 5709 5709 5710 5710 5711 5711 5712 5713 5714 5715 5716 5718 5720 5722 5723 5724 5724 5725 5726 5726 5727 5729 5730 5730 5731 5732 5733 5733 5734 5735 5735 5736 5736 5736 5737 5737 5738 5739 5740 5741 5742 5743 5744 5745
5639 5641 5643 5644 5645 5646 5648 5651 5653 5655 5657 5659 5662 5664 5666 5668 5670 5672 5673 5675 5677 5678 5680 5682 5684 5685 5687 5688 5690 5691 5692 5693 5694 5695 5697 5697 5698 5699 5701 5702 5702 5703 5705 5706 5707 5708 5708 5709 5709 5709 5710 5711 5712 5713 5715 5717 5718 5720 5721 5722 5723 5723 5724 5725 5726 5727 5728 5729 5729 5730 5731 5732 5732 5733 5733 5734 5734 5734 5735 5736 5737 5738 5738 5739 5740 5741 5742
5637 5638 5639 5641 5642 5643 5644 5646 5649 5651 5653 5655 5658 5660 5662 5664 5666 5667 5669 5671 5672 5674 5676 5678 5679 5681 5683 5684 5686 5687 5688 5689 5691 5692 5693 5694 5695 5696 5698 5699 5700 5700 5701 5703 5704 5705 5706 5706 5706 5707 5708 5709 5709 5710 5712 5713 5715 5716 5718 5719 5720 5721 5722 5723 5724 5724 5725 5726 5726 5727 5728 5729 5730 5730 5731 5731 5731 5732 5733 5734 5735 5735 5736 5737 5738 5739 5739
5635 5636 5637 5639 5640 5640 5640 5642 5644 5647 5649 5652 5654 5655 5657 5660 5662 5663 5665 5667 5669 5670 5671 5673 5675 5677 5678 5680 5681 5683 5684 5686 5687 5689 5690 5691 5693 5693 5694 5695 5696 5697 5698 5699 5700 5701 5702 5702 5703 5704 5705 5706 5707 5708 5709 5711 5712 5713 5714 5716 5717 5718 5719 5720 5720 5721 5722 5723 5724 5724 5725 5726 5727 5728 5728 5728 5728 5729 5731 5732 5733 5733 5734 5735 5735 5736 5737
5633 5635 5636 5637 5638 5638 5639 5640 5641 5643 5646 5648 5650 5652 5654 5656 5658 5660 5661 5663 5665 5667 5668 5669 5671 5673 5674 5675 5677 5679 5680 5682 5684 5685 5687 5688 5689 5690 5691 5692 5693 5694 5694 5695 5696 5696 5697 5698 5699 5701 5702 5703 5704 5705 5707 5708 5709 5710 5711 5712 5713 5714 5715 5716 5717 5718 5719 5720 5721 5722 5723 5723 5724 5725 5726 5726 5726 5727 5728 5729 5730 5731 5731 5732 5732 5733 5734
5631 5632 5633 5635 5636 5637 5638 5639 5639 5640 5642 5645 5647 5649 5651 5653 5655 5656 5658 5660 5661 5663 5665 5666 5667 5669 5670 5671 5673 5675 5677 5678 5680 5682 5683 5684 5686 5687 5688 5689 5691 5691 5691 5691 5691 5692 5692 5694 5695 5697 5698 5700 5701 5703 5704 5706 5706 5707 5708 5709 5710 5711 5712 5713 5714 5715 5716 5717 5718 5719 5720 5721 5722 5722 5723 5723 5724 5724 5725 5726 5727 5727 5728 5728 5729 5730 5730
5627 5628 5630 5632 5634 5636 5637 5638 5638 5638 5640 5643 5645 5647 5649 5651 5652 5653 5655 5657 5658 5659 5661 5662 5664 5665 5666 5668 5669 5671 5673 5674 5676 5678 5680 5681 5682 5684 5685 5686 5688 5688 5688 5689 5689 5689 5690 5691 5693 5694 5695 5697 5698 5699 5701 5702 5703 5704 5705 5707 5708 5709 5710 5711 5711 5712 5713 5714 5715 5716 5717 5718 5719 5719 5720 5720 5721 5721 5722 5722 5723 5724 5724 5725 5725 5725 5725
5624 5625 5627 5629 5631 5634 5636 5637 5637 5638 5639 5641 5643 5645 5646 5648 5649 5650 5652 5654 5655 5656 5658 5659 5660 5661 5663 5664 5666 5667 5669 5670 5672 5674 5676 5677 5678 5680 5682 5683 5684 5684 5685 5687 5688 5688 5689 5690 5691 5692 5693 5694 5695 5696 5697 5699 5700 5701 5702 5704 5705 5706 5707 5708 5709 5709 5710 5711 5712 5713 5714 5715 5715 5716 5717 5717 5718 5718 5719 5719 5719 5720 5720 5721 5721 5721 5720
5623 5624 5625 5627 5629 5631 5634 5636 5636 5637 5639 5640 5642 5643 5644 5645 5646 5648 5650 5651 5653 5654 5655 5656 5658 5659 5660 5661 5662 5664 5666 5667 5668 5670 5672 5673 5674 5676 5677 5679 5680 5681 5681 5683 5684 5685 5686 5687 5689 5689 5690 5691 5692 5693 5694 5696 5697 5698 5699 5701 5702 5703 5704 5705 5706 5706 5707 5707 5708 5709 5710 5710 5711 5712 5712 5713 5713 5714 5714 5715 5715 5715 5715 5716 5716 5716 5715
5622 5624 5625 5627 5629 5631 5633 5634 5636 5637 5638 5639 5640 5641 5642 5643 5645 5646 5647 5649 5650 5652 5653 5654 5655 5657 5658 5659 5660 5661 5663 5664 5666 5667 5668 5669 5671 5672 5673 5675 5676 5677 5678 5679 5680 5682 5683 5684 5685 5686 5687 5688 5689 5690 5691 5692 5693 5694 5695 5697 5698 5699 5700 5701 5702 5703 5703 5704 5704 5705 5705 5706 5707 5707 5708 5708 5708 5709 5709 5709 5710 5710 5710 5710 5710 5710 5709
5622 5623 5625 5627 5628 5630 5632 5633 5635 5636 5637 5638 5639 5640 5641 5642 5643 5644 5645 5646 5648 5649 5651 5652 5653 5654 5655 5656 5657 5659 5660 5662 5663 5664 5665 5666 5668 5669 5670 5672 5673 5674 5675 5676 5677 5678 5680 5681 5682 5682 5683 5684 5685 5686 5688 5689 5690 5691 5692 5693 5694 5695 5696 5697 5698 5699 5699 5700 5700 5701 5701 5702 5702 5702 5703 5703 5704 5704 5704 5704 5704 5705 5705 5704 5704 5704 5704
5621 5622 5623 5625 5627 5628 5630 5631 5633 5635 5636 5637 5638 5639 5640 5640 5641 5642 5643 5644 5645 5647 5648 5649 5650 5651 5652 5654 5655 5656 5657 5659 5660 5661 5662 5663 5664 5665 5667 5668 5669 5671 5672 5673 5674 5675 5676 5677 5678 5678 5679 5680 5681 5683 5684 5685 5686 5687 5688 5689 5690 5691 5692 5693 5694 5695 5695 5695 5696 5696 5696 5697 5697 5697 5698 5698 5699 5699 5699 5699 5699 5700 5699 5699 5699 5698 5698
5620 5621 5622 5624 5625 5627 5628 5629 5631 5632 5633 5635 5636 5637 5638 5639 5639 5640 5640 5641 5643 5644 5645 5646 5648 5648 5650 5651 5652 5653 5654 5655 5656 5657 5658 5659 5660 5661 5663 5664 5665 5666 5667 5669 5670 5671 5672 5673 5674 5675 5675 5676 5677 5679 5680 5681 5682 5683 5684 5685 5686 5687 5688 5689 5690 5690 5691 5691 5691 5691 5692 5692 5692 5693 5693 5693 5694 5694 5694 5694 5694 5694 5694 5693 5693 5692 5691
5618 5619 5621 5622 5623 5625 5626 5627 5628 5629 5631 5632 5634 5635 5636 5637 5637 5638 5638 5639 5640 5641 5642 5643 5644 5645 5646 5647 5648 5649 5651 5652 5653 5654 5655 5656 5657 5658 5659 5660 5661 5662 5663 5664 5665 5666 5667 5668 5669 5670 5671 5672 5673 5674 5675 5676 5677 5678 5679 5680 5681 5682 5683 5684 5684 5685 5685 5686 5686 5686 5686 5687 5687 5687 5687 5688 5688 5688 5688 5688 5688 5688 5687 5687 5686 5685 5684
5616 5618 5619 5620 5621 5623 5624 5625 5626 5627 5628 5630 5631 5632 5633 5634 5635 5635 5635 5636 5636 5637 5638 5639 5641 5642 5643 5644 5645 5646 5647 5648 5649 5650 5651 5652 5653 5654 5655 5656 5657 5658 5659 5660 5661 5662 5663 5664 5665 5666 5667 5668 5668 5669 5670 5671 5672 5673 5674 5675 5676 5677 5678 5679 5679 5680 5680 5681 5681 5681 5682 5682 5682 5682 5682 5682 5682 5682 5682 5682 5682 5681 5681 5680 5680 5679 5678
5615 5616 5617 5618 5619 5620 5621 5622 5624 5625 5626 5627 5628 5629 5630 5631 5632 5632 5632 5633 5633 5634 5635 5636 5637 5638 5639 5640 5641 5642 5643 5644 5645 5646 5647 5648 5648 5649 5650 5651 5653 5654 5655 5656 5657 5658 5659 5660 5660 5661 5662 5662 5663 5664 5665 5666 5667 5669 5670 5671 5672 5673 5674 5674 5675 5675 5676 5676 5676 5677 5677 5677 5677 5677 5677 5676 5676 5676 5676 5676 5675 5675 5674 5674 5673 5672 5671
5613 5614 5615 5616 5617 5618 5619 5620 5621 5622 5623 5624 5626 5627 5627 5628 5629 5629 5630 5630 5631 5631 5632 5633 5633 5634 5634 5635 5637 5638 5639 5640 5640 5641 5643 5644 5644 5645 5646 5647 5648 5650 5651 5652 5653 5654 5655 5656 5656 5657 5658 5658 5659 5660 5661 5662 5663 5664 5665 5666 5667 5668 5669 5669 5670 5671 5671 5671 5671 5672 5672 5672 5672 5672 5671 5670 5670 5670 5670 5669 5668 5668 5667 5666 5665 5664 5663
5611 5612 5613 5614 5615 5615 5616 5617 5618 5619 5621 5622 5623 5624 5625 5625 5625 5626 5627 5627 5628 5628 5629 5629 5630 5631 5631 5632 5632 5633 5635 5636 5636 5637 5638 5640 5640 5641 5642 5643 5644 5645 5647 5648 5649 5649 5650 5651 5652 5653 5654 5654 5655 5656 5657 5657 5658 5659 5660 5661 5662 5663 5664 5664 5665 5665 5665 5665 5665 5665 5665 5665 5665 5665 5664 5663 5662 5662 5662 5662 5661 5660 5659 5658 5657 5656 5655
5609 5610 5611 5611 5612 5613 5614 5615 5616 5617 5618 5619 5620 5621 5621 5622 5622 5622 5623 5623 5624 5624 5625 5625 5626 5627 5628 5629 5629 5630 5630 5631 5632 5633 5634 5635 5636 5637 5638 5639 5640 5642 5643 5644 5644 5645 5646 5647 5648 5648 5649 5650 5651 5652 5653 5653 5654 5655 5656 5656 5657 5657 5658 5658 5658 5658 5659 5659 5658 5658 5658 5657 5657 5657 5657 5656 5655 5654 5654 5654 5654 5653 5652 5651 5650 5649 5648
5608 5608 5609 5610 5610 5611 5611 5612 5613 5614 5615 5615 5616 5617 5617 5617 5618 5618 5618 5619 5619 5620 5621 5621 5622 5623 5624 5625 5625 5626 5627 5627 5628 5628 5630 5631 5632 5633 5634 5635 5636 5637 5638 5639 5640 5641 5642 5642 5643 5644 5645 5646 5647 5648 5648 5649 5650 5650 5651 5651 5651 5651 5651 5651 5652 5652 5652 5651 5651 5651 5650 5650 5650 5649 5649 5649 5648 5648 5647 5647 5646 5646 5646 5645 5643 5642 5641
5607 5607 5607 5608 5608 5609 5609 5610 5610 5611 5611 5612 5612 5613 5613 5613 5613 5613 5613 5614 5614 5615 5616 5617 5617 5618 5619 5620 5620 5621 5622 5623 5623 5624 5625 5626 5627 5628 5629 5630 5631 5632 5633 5634 5635 5635 5636 5637 5638 5639 5640 5641 5642 5642 5643 5643 5644 5644 5645 5645 5645 5645 5645 5645 5645 5645 5644 5644 5644 5644 5643 5643 5642 5642 5641 5641 5641 5641 5641 5640 5639 5639 5638 5637 5636 5636 5634
5607 5607 5607 5607 5607 5607 5607 5607 5608 5608 5608 5609 5609 5609 5609 5609 5609 5609 5609 5609 5610 5610 5611 5611 5612 5613 5613 5614 5615 5616 5616 5617 5618 5619 5619 5620 5621 5622 5623 5624 5625 5626 5627 5628 5629 5630 5631 5632 5633 5633 5634 5635 5636 5636 5637 5637 5637 5638 5638 5638 5638 5639 5638 5638 5638 5638 5638 5638 5638 5638 5637 5637 5636 5636 5635 5634 5634 5633 5633 5633 5632 5632 5631 5630 5629 5628 5627
5607 5607 5607 5607 5606 5606 5606 5606 5606 5605 5605 5605 5605 5605 5605 5605 5605 5606 5606 5605 5605 5605 5606 5606 5607 5607 5608 5608 5609 5610 5610 5611 5612 5613 5614 5614 5615 5617 5618 5619 5620 5621 5622 5623 5623 5624 5625 5626 5627 5628 5628 5629 5630 5630 5631 5631 5631 5631 5631 5631 5632 5632 5632 5632 5632 5633 5633 5632 5632 5632 5632 5631 5630 5630 5629 5628 5628 5627 5626 5625 5625 5624 5624 5623 5622 5621 5619
5607 5607 5607 5606 5606 5606 5605 5605 5604 5604 5603 5603 5602 5602 5602 5601 5601 5601 5601 5601 5601 5601 5601 5601 5602 5602 5603 5603 5604 5604 5605 5606 5607 5607 5608 5609 5610 5611 5612 5613 5614 5615 5616 5616 5618 5619 5620 5621 5621 5622 5622 5622 5623 5624 5624 5624 5625 5625 5625 5625 5626 5626 5626 5626 5627 5627 5627 5627 5627 5626 5626 5625 5625 5624 5623 5623 5622 5621 5620 5619 5618 5618 5617 5616 5615 5614 5613
5607 5607 5606 5606 5605 5605 5604 5604 5603 5602 5601 5601 5600 5599 5598 5597 5597 5597 5597 5596 5596 5596 5596 5597 5597 5597 5598 5598 5599 5599 5600 5601 5602 5602 5603 5604 5605 5605 5606 5607 5608 5609 5609 5610 5611 5612 5613 5614 5615 5615 5616 5616 5617 5617 5618 5618 5618 5619 5619 5620 5620 5620 5620 5620 5621 5621 5621 5621 5621 5621 5620 5620 5619 5618 5618 5617 5616 5616 5615 5614 5613 5612 5611 5610 5609 5608 5607
5606 5606 5605 5605 5604 5604 5603 5602 5601 5601 5600 5598 5597 5596 5595 5594 5593 5592 5592 5592 5592 5591 5591 5592 5592 5592 5593 5594 5594 5595 5595 5596 5597 5597 5598 5599 5600 5600 5601 5602 5603 5603 5604 5604 5605 5606 5607 5608 5608 5609 5610 5610 5611 5611 5612 5612 5613 5613 5614 5614 5615 5615 5615 5615 5615 5616 5616 5615 5615 5615 5614 5614 5613 5613 5612 5612 5611 5610 5609 5608 5608 5607 5606 5605 5604 5603 5602
5605 5605 5604 5604 5603 5603 5602 5601 5600 5599 5598 5596 5595 5594 5592 5590 5589 5588 5588 5587 5587 5587 5587 5587 5587 5588 5588 5589 5589 5590 5590 5591 5592 5592 5593 5594 5595 5595 5596 5597 5598 5598 5599 5599 5600 5601 5602 5603 5604 5604 5605 5605 5606 5606 5607 5607 5608 5608 5609 5609 5609 5610 5610 5610 5610 5610 5610 5610 5610 5609 5609 5609 5608 5608 5607 5607 5606 5606 5605 5604 5603 5602 5601 5600 5599 5598 5598
5605 5604 5604 5603 5603 5602 5601 5600 5599 5598 5596 5595 5593 5591 5590 5588 5586 5585 5584 5584 5583 5583 5583 5583 5583 5584 5584 5584 5585 5585 5586 5586 5587 5588 5588 5589 5590 5591 5591 5592 5593 5594 5594 5595 5596 5596 5597 5598 5599 5599 5600 5600 5601 5601 5602 5602 5603 5603 5604 5604 5604 5604 5605 5605 5605 5605 5605 5604 5604 5604 5604 5604 5604 5603 5603 5603 5602 5601 5601 5600 5599 5598 5597 5597 5596 5595 5594
5604 5604 5603 5602 5602 5601 5600 5599 5598 5596 5595 5593 5592 5590 5588 5586 5584 5582 5581 5580 5580 5579 5579 5579 5579 5580 5580 5580 5581 5581 5582 5582 5582 5583 5584 5584 5585 5586 5587 5587 5588 5589 5590 5590 5591 5592 5593 5594 5594 5594 5595 5595 5596 5596 5597 5597 5597 5598 5599 5599 5599 5599 5600 5600 5600 5600 5600 5600 5600 5600 5599 5599 5599 5599 5599 5599 5598 5598 5597 5596 5596 5595 5594 5594 5593 5592 5591
5603 5603 5602 5601 5600 5599 5598 5597 5596 5595 5593 5592 5590 5588 5586 5584 5582 5580 5579 5577 5576 5576 5575 5575 5575 5575 5576 5576 5577 5577 5578 5578 5579 5579 5579 5580 5580 5581 5582 5583 5583 5584 5585 5586 5586 5587 5588 5588 5589 5589 5590 5591 5591 5591 5592 5592 5592 5593 5594 5594 5594 5594 5595 5595 5595 5595 5595 5595 5595 5595 5595 5595 5595 5595 5595 5595 5594 5594 5593 5593 5593 5592 5592 5591 5590 5589 5588
5602 5602 5601 5600 5599 5598 5597 5596 5595 5594 5592 5591 5589 5587 5585 5583 5581 5579 5577 5575 5574 5573 5572 5572 5572 5572 5572 5572 5573 5573 5574 5574 5575 5575 5575 5576 5576 5577 5577 5578 5579 5580 5580 5581 5582 5582 5583 5583 5584 5584 5585 5586 5586 5586 5587 5587 5588 5588 5589 5589 5589 5590 5590 5590 5590 5590 5590 5591 5591 5591 5591 5591 5592 5591 5591 5591 5591 5591 5590 5590 5590 5589 5589 5588 5587 5586 5585
5601 5600 5600 5599 5598 5597 5596 5595 5594 5593 5591 5590 5588 5586 5584 5582 5580 5578 5576 5574 5573 5571 5570 5569 5569 5569 5569 5569 5569 5569 5570 5570 5571 5571 5571 5572 5572 5573 5573 5574 5575 5575 5576 5577 5577 5578 5578 5579 5579 5579 5580 5581 5581 5582 5582 5583 5583 5583 5584 5584 5585 5585 5585 5585 5586 5586 5586 5586 5587 5587 5587 5588 5588 5588 5588 5588 5588 5587 5587 5587 5587 5586 5586 5585 5584 5583 5581
5600 5599 5599 5598 5597 5596 5595 5594 5593 5592 5590 5589 5587 5585 5583 5581 5579 5577 5576 5574 5572 5570 5569 5568 5567 5566 5566 5566 5566 5566 5566 5567 5567 5567 5568 5568 5568 5569 5569 5570 5570 5571 5571 5572 5573 5574 5574 5574 5574 5575 5576 5576 5577 5577 5577 5578 5578 5579 5579 5580 5580 5580 5581 5581 5581 5581 5582 5582 5583 5583 5584 5584 5584 5584 5584 5584 5584 5584 5584 5584 5584 5583 5583 5582 5581 5580 5578
5599 5598 5598 5597 5596 5595 5594 5593 5592 5590 5589 5588 5586 5584 5583 5581 5579 5577 5575 5573 5571 5569 5568 5566 5565 5564 5564 5564 5563 5563 5563 5563 5564 5564 5564 5564 5565 5565 5566 5566 5566 5567 5567 5568 5569 5569 5569 5570 5570 5571 5571 5572 5572 5572 5573 5573 5574 5574 5575 5575 5576 5576 5576 5576 5577 5577 5578 5579 5579 5580 5580 5580 5581 5581 5581 5581 5581 5581 5581 5581 5581 5580 5579 5579 5578 5576 5575
5598 5597 5596 5596 5595 5594 5593 5592 5591 5589 5588 5587 5585 5583 5582 5580 5578 5576 5574 5573 5571 5569 5567 5566 5564 5563 5562 5562 5561 5561 5561 5561 5561 5561 5561 5561 5561 5562 5562 5562 5562 5563 5563 5564 5564 5565 5565 5565 5566 5566 5567 5567 5568 5568 5569 5569 5570 5570 5570 5571 5571 5572 5572 5572 5573 5573 5574 5575 5576 5576 5577 5577 5577 5577 5577 5578 5578 5578 5578 5578 5577 5577 5576 5575 5574 5573 5572
5597 5596 5595 5595 5594 5593 5592 5590 5589 5588 5587 5585 5584 5582 5581 5579 5578 5576 5574 5572 5570 5568 5567 5565 5564 5562 5561 5561 5560 5559 5559 5559 5559 5559 5559 5559 5559 5559 5559 5559 5559 5559 5560 5560 5560 5561 5561 5561 5562 5562 5563 5563 5564 5564 5565 5565 5565 5566 5566 5567 5567 5568 5568 5568 5569 5570 5570 5571 5572 5573 5573 5573 5573 5574 5574 5574 5574 5575 5575 5575 5574 5574 5573 5572 5571 5570 5569
5596 5595 5594 5593 5593 5592 5590 5589 5588 5587 5585 5584 5583 5581 5580 5578 5577 5575 5573 5571 5570 5568 5566 5565 5563 5562 5561 5560 5559 5558 5557 5557 5557 5556 5556 5556 5556 5556 5556 5556 5556 5556 5557 5557 5557 5557 5558 5558 5558 5559 5559 5559 5560 5560 5561 5561 5561 5562 5562 5563 5563 5564 5564 5565 5565 5566 5567 5568 5568 5569 5569 5570 5570 5570 5571 5571 5571 5571 5571 5571 5571 5571 5570 5569 5568 5567 5566
5595 5594 5593 5592 5591 5590 5589 5588 5587 5586 5584 5583 5581 5580 5579 5577 5575 5574 5572 5571 5569 5567 5566 5564 5562 5561 5560 5559 5558 5557 5556 5555 5555 5555 5554 5554 5554 5554 5553 5553 5554 5554 5554 5554 5554 5554 5554 5555 5555 5555 5556 5556 5556 5557 5557 5557 5558 5558 5558 5559 5559 5560 5561 5561 5562 5563 5563 5564 5565 5565 5566 5566 5567 5567 5567 5568 5568 5568 5568 5568 5568 5567 5567 5566 5565 5564 5563
5594 5593 5592 5591 5590 5589 5588 5587 5585 5584 5583 5582 5580 5579 5577 5576 5574 5573 5571 5570 5568 5567 5565 5564 5562 5560 5559 5558 5557 5556 5555 5554 5554 5553 5552 5552 5552 5551 5551 5551 5551 5551 5551 5551 5552 5552 5552 5552 5552 5552 5552 5553 5553 5553 5553 5554 5554 5554 5555 5555 5556 5557 5557 5558 5559 5559 5560 5561 5561 5562 5562 5563 5564 5564 5564 5565 5565 5565 5565 5565 5564 5564 5564 5563 5562 5561 5560
5593 5593 5591 5590 5589 5588 5587 5585 5584 5583 5581 5580 5579 5577 5576 5575 5573 5572 5570 5569 5568 5566 5565 5563 5561 5560 5559 5557 5556 5555 5554 5553 5552 5551 5551 5550 5550 5549 5549 5549 5548 5548 5548 5549 5549 5549 5549 5549 5549 5549 5549 5550 5550 5550 5550 5550 5551 5551 5551 5552 5552 5553 5554 5555 5555 5556 5557 5557 5558 5559 5559 5560 5561 5561 5561 5562 5562 5562 5562 5561 5561 5561 5560 5560 5559 5558 5557
5593 5592 5591 5590 5588 5587 5586 5584 5583 5582 5580 5579 5577 5576 5575 5573 5572 5570 5569 5568 5567 5565 5564 5562 5561 5559 5558 5557 5555 5554 5553 5552 5551 5550 5549 5549 5548 5547 5547 5547 5546 5546 5546 5546 5546 5546 5546 5546 5546 5546 5546 5547 5547 5547 5547 5547 5548 5548 5548 5548 5549 5550 5550 5551 5552 5553 5553 5554 5555 5555 5556 5557 5557 5558 5558 5559 5559 5559 5559 5558 5558 5558 5557 5557 5556 5555 5554
5593 5592 5591 5589 5588 5587 5585 5584 5582 5581 5579 5578 5576 5575 5573 5572 5570 5569 5568 5567 5565 5564 5562 5561 5560 5558 5557 5556 5555 5553 5552 5551 5550 5549 5548 5547 5546 5546 5545 5545 5544 5544 5544 5543 5543 5543 5543 5543 5543 5543 5543 5543 5544 5544 5544 5544 5545 5545 5545 5545 5546 5546 5547 5548 5549 5549 5550 5551 5551 5552 5553 5554 5554 5555 5555 5555 5556 5556 5555 5555 5555 5555 5554 5554 5553 5552 5551
5592 5591 5590 5589 5587 5586 5584 5583 5581 5580 5578 5577 5575 5573 5572 5571 5569 5568 5566 5565 5564 5562 5561 5559 5558 5557 5556 5555 5553 5552 5551 5550 5548 5547 5546 5546 5545 5544 5543 5542 5542 5542 5541 5541 5541 5540 5540 5540 5540 5540 5540 5540 5541 5541 5541 5541 5542 5542 5542 5542 5543 5543 5544 5544 5545 5546 5547 5547 5548 5549 5550 5550 5551 5551 5552 5552 5552 5552 5552 5552 5552 5552 5551 5551 5550 5549 5549
5592 5591 5589 5588 5587 5585 5583 5582 5580 5578 5577 5575 5573 5572 5570 5569 5567 5566 5564 5563 5561 5560 5559 5557 5556 5555 5554 5553 5551 5550 5549 5548 5547 5546 5545 5544 5543 5542 5541 5540 5540 5539 5539 5538 5538 5538 5537 5537 5537 5537 5537 5537 5537 5538 5538 5538 5538 5539 5539 5539 5540 5540 5541 5541 5542 5542 5543 5544 5545 5546 5546 5547 5547 5548 5548 5548 5549 5549 5549 5549 5549 5549 5548 5548 5547 5547 5546
5591 5589 5588 5587 5585 5584 5582 5581 5579 5577 5575 5573 5572 5570 5569 5567 5566 5564 5562 5561 5559 5558 5557 5555 5554 5553 5552 5550 5549 5548 5547 5546 5545 5544 5543 5542 5541 5540 5539 5538 5537 5537 5536 5536 5535 5535 5535 5534 5534 5534 5534 5534 5534 5534 5535 5535 5535 5535 5535 5536 5536 5537 5537 5538 5538 5539 5540 5541 5542 5542 5543 5543 5544 5544 5545 5545 5545 5545 5546 5546 5546 5545 5545 5545 5544 5544 5543
5589 5588 5586 5585 5584 5582 5581 5579 5577 5576 5574 5572 5570 5568 5567 5565 5564 5562 5560 5559 5557 5556 5555 5553 5552 5550 5549 5548 5547 5546 5545 5544 5543 5542 5541 5540 5538 5538 5537 5536 5535 5534 5534 5533 5533 5532 5532 5531 5531 5531 5531 5531 5531 5531 5531 5531 5532 5532 5532 5532 5533 5533 5533 5534 5534 5535 5536 5537 5538 5539 5539 5540 5540 5541 5541 5542 5542 5542 5542 5542 5542 5542 5542 5542 5541 5541 5540